Regional Weather Roundup
Issued by NWS Upton, NY

Home | Current Version | Previous Version | Text Only | Print | Product List | Glossary On
Versions: 1 2 3 4 5 6 7 8 9 10 11 12 13 14 15 16 17 18 19 20 21 22 23 24 25 26 27 28 29 30 31 32 33 34 35 36 37 38 39 40 41 42 43 44 45 46 47 48 49 50
000
ASUS41 KOKX 301504
RWROKX

REGIONAL WEATHER ROUNDUP
NATIONAL WEATHER SERVICE NEW YORK NY
1100 AM EDT TUE AUG 30 2016

NOTE: "FAIR" INDICATES FEW OR NO CLOUDS BELOW 12,000 FEET WITH NO
SIGNIFICANT WEATHER AND/OR OBSTRUCTIONS TO VISIBILITY.

NYZ071-072-176-178-NJZ106-104-301600-
NEW YORK CITY METRO AREA

CITY           SKY/WX    TMP DP  RH WIND       PRES   REMARKS
Central Park   SUNNY     78  60  53 E3        30.19F
LaGuardia APRT MOSUNNY   79  62  56 NE12      30.16F
Kennedy INTL   PTSUNNY   79  63  57 E3        30.18S
Newark/Liberty PTSUNNY   79  61  53 SE8       30.16F
Bronx Bot Gard   N/A     77  59  53 CALM      30.17F
Wall St Helipt MOSUNNY   82  61  47 SW3       30.17S
Teterboro      SUNNY     79  59  50 NE3       30.15F
$$

NYZ177-179-078>081-301600-
LONG ISLAND NEW YORK

CITY           SKY/WX    TMP DP  RH WIND       PRES   REMARKS
Farmingdale    SUNNY     79  62  56 SE7       30.17F
MacArthur/ISP  PTSUNNY   80  32  17 MISG      30.16F
Shirley        SUNNY     80  61  52 MISG      30.17F
Riverhead      NOT AVBL
Westhampton    MOSUNNY   76  60  57 E6        30.19F
Southampton      N/A     77  63  61 CALM      30.14S
Bridgehampton    N/A     77  63  61 S2        30.17S
East Hampton   FAIR      75  60  60 S6        30.17F
Montauk          N/A     74  63  68 NE6       30.19S
$$

NYZ052-065-067-301600-
HUDSON VALLEY

CITY           SKY/WX    TMP DP  RH WIND       PRES   REMARKS
White Plains   MOSUNNY   77  60  55 S6        30.18S
Newburgh       MOSUNNY   73  61  64 CALM      30.20F
Montgomery     SUNNY     75  60  59 E5        30.18F
Poughkeepsie   SUNNY     74  57  55 VRB5      30.17F
Albany         MOSUNNY   71  57  61 SW6       30.17F
$$

NJZ001-105-106-008-010-013-015-019>022-104-301600-
NEW JERSEY

CITY           SKY/WX    TMP DP  RH WIND       PRES   REMARKS
Newark/Liberty PTSUNNY   79  61  53 SE8       30.16F
Teterboro      SUNNY     79  59  50 NE3       30.15F
Caldwell       SUNNY     78  60  53 CALM      30.17F
Morristown     MOSUNNY   77  63  61 CALM      30.17F
Somerville     MOSUNNY   79  62  56 VRB3      30.15S
Linden         FAIR      80  60  51 S9        30.18S
Sussex         MOSUNNY   75  61  61 CALM      30.19S
Abdover          N/A     75  61  61 CALM      30.19F
Trenton        SUNNY     79  64  60 E7        30.16S
Millville      SUNNY     83  72  69 VRB7      30.13F
Atlantic City  MOSUNNY   84  67  56 E14G20    30.14S
Wrightstown    SUNNY     82  64  55 E5        30.13S
Toms River     MOSUNNY   82  65  56 SE10      30.16S
Belmar         PTSUNNY   79  64  60 E8        30.17F
$$

PAZ047>061-062-071-301600-
EASTERN PENNSYLVANIA

CITY           SKY/WX    TMP DP  RH WIND       PRES   REMARKS
Philadelphia   MOSUNNY   82  63  52 E5        30.15F
Allentown      SUNNY     77  60  55 CALM      30.18F
Scranton       SUNNY     73  60  63 W3        30.19F
$$

CTZ002-004>006-009-010-012-RIZ004-006-007-MAZ004-011-015-301600-
SOUTHERN NEW ENGLAND
 IN CT

CITY           SKY/WX    TMP DP  RH WIND       PRES   REMARKS
Bradley INTL   PTSUNNY   74  55  51 S8        30.18F
Hartford       SUNNY     75  57  53 CALM      30.17F
Danbury        SUNNY     73  57  57 SW6       30.19F
Wtrbury/Oxford MOSUNNY   73  55  53 SW5       30.21F
Bridgeport     SUNNY     75  59  57 CALM      30.17F
Meriden        SUNNY     77  56  48 S6        30.17F
New Haven      SUNNY     76  58  53 S7        30.18F
Chester        FAIR      75  57  53 S6        30.18F
Groton         SUNNY     74  59  59 S7        30.17F
Wilimantic     SUNNY     75  56  51 VRB3      30.18F

 IN RI

CITY           SKY/WX    TMP DP  RH WIND       PRES   REMARKS
Providence     MOSUNNY   75  55  49 VRB7      30.17F
Block Island   MOSUNNY   73  62  68 VRB5      30.18F
Westerly       SUNNY     75  56  51 S8        30.18F
 IN MA

CITY           SKY/WX    TMP DP  RH WIND       PRES   REMARKS
Boston         MOSUNNY   74  54  49 SE8       30.15F
Worcester      SUNNY     70  52  52 SW7       30.19F
Westfield      SUNNY     74  54  49 S10       30.17F
Provincetown   SUNNY     72  62  71 N6        30.17F
Nantucket      SUNNY     73  59  61 SE9       30.17R
$$

ANZ330-335-338-340-345-350-353-355-301600-
COASTAL MARINE OBSERVATIONS


STATION/POSITION TIME  SKY/WX   TEMP    WIND        PRES    VSBY  WAVE
                                AIR SEA DIR/SP/G                  HT/PER
                 (UTC)          (F)     (DEG/KT/KT) (MB)    (MI)  (FT/S)
NY HARB ENTRANCE 1350            74 77   70/ 10/ 12 1021.2          5/13
20S FIRE ISLAND  1350            75 75  110/ 10/ 12 1020.9          5/12
GREAT SOUTH BAY  1430            73 79   70/  6/  8   N/A
23 SSW MONTAUK P 1350            73 76  110/  4/  8 1021.9          4/11
15 E BARNEGAT LI 1400               77                N/A           6/12
HUDSON CANYON    1350            77 78              1020.4          5/11
KINGS POINT      1400            73 76              1021.6
EXECUTION ROCKS  1400            71      40/  8/ 10   N/A
CENTRAL LI SOUND NOT AVBL
EASTERN LI SOUND 1400            74 71   40/  6/  6   N/A
ROBBINS REEF     1400            76      CALM  /  6 1021.0
$$


>>>>>>>>>>>>>>>>>>>>>>>>>>>> KEY <<<<<<<<<<<<<<<<<<<<<<<<<<<
>                                                          <
>     SKY/WX - Sky Condition/Present Weather               <
>     TMP    - Temperature in Fahrenheit                   <
>     DP     - Dew Point in Fahrenheit                     <
>     RH     - Relative Humidity in Percent                <
>     WIND   - Direction (from) and Speed in MPH           <
>     PRES   - Mean Sea Level Pressure (inches of Hg)      <
>     WCI    - Wind Chill Index                            <
>     VSB    - VISIBILITY IN MILES                         <
>     HX     - HEAT INDEX                                  <
>     TC     - TEMPERATURE IN CELSIUS                      <
>     VRB    - VARIABLE WIND DIRECTION                     <
>                                                          <
>>>>>>>>>>>>>>>>>>>>>>>>>>>> KEY <<<<<<<<<<<<<<<<<<<<<<<<<<<



USA.gov is the U.S. government's official web portal to all federal, state and local government web resources and services.